Location: Stoke Bliss
(52.2667°N, 2.5167°W)
Time: 18:58:10
(UTC+00:00)

Meteor 1-14 Rocket - Pass Details

Date: 03 March 2021
Orbit: 834 x 918 km, 81.3° (Epoch: 17 April)

Event Time Altitude Azimuth Distance (km) Brightness Sun altitude
Rises 19:22:21 0° 188° (S) 3,394 7.4 -14.4°
Reaches altitude 10° 19:24:45 10° 188° (S) 2,455 6.6 -14.7°
Maximum altitude 19:30:19 84° 101° (E) 848 4.1 -15.6°
Drops below altitude 10° 19:35:53 10° 14° (NNE) 2,460 6.6 -16.4°
Sets 19:38:18 0° 14° (NNE) 3,401 7.3 -16.8°
